Miscellaneous Local Product
Issued by NWS Hastings, NE

Home | Current Version | Previous Version | Text Only | Print | Product List | Glossary On
Versions: 1 2 3 4 5 6 7 8 9 10 11 12 13 14 15 16 17 18 19 20 21 22 23 24 25 26 27 28 29 30 31 32 33 34 35 36 37 38 39 40 41 42 43 44 45 46 47 48 49 50
795
AXUS43 KGID 220802
MISGRI

GID CWA HOURLY WEATHER ROUNDUP
NATIONAL WEATHER SERVICE HASTINGS NE
300 AM CDT FRI SEP 22 2017

NOTE: "FAIR" INDICATES FEW OR NO CLOUDS BELOW 12,000 FEET WITH NO
SIGNIFICANT WEATHER AND/OR OBSTRUCTIONS TO VISIBILITY.

...SOUTH CENTRAL NEBRASKA...

CITY           SKY/WX    TMP DP  RH WIND       PRES   REMARKS
GRAND ISLAND   CLEAR     78  71  79 S18G25    29.76R
HASTINGS       CLEAR     80  68  66 S17G28    29.78R
KEARNEY        CLEAR     79  68  69 S22G31    29.74R
ORD            CLEAR     78  66  66 S17G28    29.69R
YORK           PTCLDY    79  72  78 S13G24    29.79R
AURORA         CLEAR     78  71  80 S17G24    29.77S
LEXINGTON      CLEAR     80  66  63 S23       29.70S
HOLDREGE       CLEAR     78  66  66 S20G25    29.74R
HEBRON         PTCLDY    81  70  70 S15G25    29.80S

...NEBRASKA PANHANDLE...

CITY           SKY/WX    TMP DP  RH WIND       PRES   REMARKS
CHADRON        CLEAR     53  40  61 N9        29.71R
ALLIANCE       CLEAR     51  42  71 N14       29.64S
SCOTTSBLUFF    CLOUDY    56  40  55 NW10G18   29.68R
SIDNEY         CLOUDY    52  32  46 SW9       29.66R

...WESTERN AND NORTH CENTRAL NEBRASKA...

CITY           SKY/WX    TMP DP  RH WIND       PRES   REMARKS
VALENTINE      CLEAR     70  49  47 S21       29.60S
AINSWORTH      CLEAR     71  61  70 S17       29.64S
ONEILL         CLEAR     79  69  71 S20G25    29.69S
BROKEN BOW     CLEAR     77  66  68 S18G26    29.68F
IMPERIAL       CLEAR     67  42  40 S10       29.67R
NORTH PLATTE   CLEAR     78  64  61 S22G31    29.64S
MCCOOK         LGT RAIN  79  66  64 S24G35    29.68R

...EASTERN NEBRASKA...

CITY           SKY/WX    TMP DP  RH WIND       PRES   REMARKS
NORFOLK        CLEAR     79  71  76 S20G29    29.74S
SO SIOUX CITY  PTCLDY    78  74  87 S12       29.77R
TEKAMAH        CLEAR     79  71  76 SE13      29.79S
COLUMBUS       CLEAR     80  71  74 S17G24    29.76S
ALBION         PTCLDY    78  72  79 S16G22    29.74S
OMAHA EPPLEY   PTCLDY    80  71  74 S15       29.82S
OFFUTT AFB     PTCLDY    78  71  81 SE10      29.82S
MILLARD        PTCLDY    79  73  80 SE8       29.82S
LINCOLN        CLEAR     80  70  71 S16G22    29.80S
NEBRASKA CITY  CLEAR     77  74  91 S12G20    29.85F
BEATRICE       CLEAR     80  70  71 S15       29.83S
FALLS CITY     CLEAR     79  71  76 S14       29.86S

...NORTHERN KANSAS...

CITY           SKY/WX    TMP DP  RH WIND       PRES   REMARKS
GOODLAND       CLEAR     65  46  50 S15       29.72R
HILL CITY      CLEAR     80  68  66 S17G31    29.75R
NORTON         SUNNY     79  63  57 S20G30    29.72S
PHILLIPSBURG   CLEAR     81  66  61 S21G26    29.74S
SMITH CENTER   CLEAR     79  66  65 S20G28    29.77R
HAYS           CLEAR     79  68  69 S22G28    29.78R
RUSSELL        CLEAR     79  68  69 S22G31    29.78S
CONCORDIA      PTCLDY    79  70  74 S18G30    29.81S
SALINA         CLEAR     83  68  60 S20G31    29.83S
TOPEKA         CLEAR     78  72  81 S7        29.89S



USA.gov is the U.S. government's official web portal to all federal, state and local government web resources and services.